Year,Month,Day,Hour,Minute,Value (Times are PST for insolation in W/m^2)
2015,01,29,00,00,0.00
2015,01,29,00,01,0.00
2015,01,29,00,02,0.00
2015,01,29,00,03,0.00
2015,01,29,00,04,0.00
2015,01,29,00,05,0.00
2015,01,29,00,06,0.00
2015,01,29,00,07,0.00
2015,01,29,00,08,0.00
2015,01,29,00,09,0.00
2015,01,29,00,10,0.00
2015,01,29,00,11,0.00
2015,01,29,00,12,0.00
2015,01,29,00,13,0.00
2015,01,29,00,14,0.00
2015,01,29,00,15,0.00
2015,01,29,00,16,0.00
2015,01,29,00,17,0.00
2015,01,29,00,18,0.00
2015,01,29,00,19,0.00
2015,01,29,00,20,0.00
2015,01,29,00,21,0.00
2015,01,29,00,22,0.00
2015,01,29,00,23,0.00
2015,01,29,00,24,0.00
2015,01,29,00,25,0.00
2015,01,29,00,26,0.00
2015,01,29,00,27,0.00
2015,01,29,00,28,0.00
2015,01,29,00,29,0.00
2015,01,29,00,30,0.00
2015,01,29,00,31,0.00
2015,01,29,00,32,0.00
2015,01,29,00,33,0.00
2015,01,29,00,34,0.00
2015,01,29,00,35,0.00
2015,01,29,00,36,0.00
2015,01,29,00,37,0.00
2015,01,29,00,38,0.00
2015,01,29,00,39,0.00
2015,01,29,00,40,0.00
2015,01,29,00,41,0.00
2015,01,29,00,42,0.00
2015,01,29,00,43,0.00
2015,01,29,00,44,0.00
2015,01,29,00,45,0.00
2015,01,29,00,46,0.00
2015,01,29,00,47,0.00
2015,01,29,00,48,0.00
2015,01,29,00,49,0.00
2015,01,29,00,50,0.00
2015,01,29,00,51,0.00
2015,01,29,00,52,0.00
2015,01,29,00,53,0.00
2015,01,29,00,54,0.00
2015,01,29,00,55,0.00
2015,01,29,00,56,0.00
2015,01,29,00,57,0.00
2015,01,29,00,58,0.00
2015,01,29,00,59,0.00
2015,01,29,01,00,0.00
2015,01,29,01,01,0.00
2015,01,29,01,02,0.00
2015,01,29,01,03,0.00
2015,01,29,01,04,0.00
2015,01,29,01,05,0.00
2015,01,29,01,06,0.00
2015,01,29,01,07,0.00
2015,01,29,01,08,0.00
2015,01,29,01,09,0.00
2015,01,29,01,10,0.00
2015,01,29,01,11,0.00
2015,01,29,01,12,0.00
2015,01,29,01,13,0.00
2015,01,29,01,14,0.00
2015,01,29,01,15,0.00
2015,01,29,01,16,0.00
2015,01,29,01,17,0.00
2015,01,29,01,18,0.00
2015,01,29,01,19,0.00
2015,01,29,01,20,0.00
2015,01,29,01,21,0.00
2015,01,29,01,22,0.00
2015,01,29,01,23,0.00
2015,01,29,01,24,0.00
2015,01,29,01,25,0.00
2015,01,29,01,26,0.00
2015,01,29,01,27,0.00
2015,01,29,01,28,0.00
2015,01,29,01,29,0.00
2015,01,29,01,30,0.00
2015,01,29,01,31,0.00
2015,01,29,01,32,0.00
2015,01,29,01,33,0.00
2015,01,29,01,34,0.00
2015,01,29,01,35,0.00
2015,01,29,01,36,0.00
2015,01,29,01,37,0.00
2015,01,29,01,38,0.00
2015,01,29,01,39,0.00
2015,01,29,01,40,0.00
2015,01,29,01,41,0.00
2015,01,29,01,42,0.00
2015,01,29,01,43,0.00
2015,01,29,01,44,0.00
2015,01,29,01,45,0.00
2015,01,29,01,46,0.00
2015,01,29,01,47,0.00
2015,01,29,01,48,0.00
2015,01,29,01,49,0.00
2015,01,29,01,50,0.00
2015,01,29,01,51,0.00
2015,01,29,01,52,0.00
2015,01,29,01,53,0.00
2015,01,29,01,54,0.00
2015,01,29,01,55,0.00
2015,01,29,01,56,0.00
2015,01,29,01,57,0.00
2015,01,29,01,58,0.00
2015,01,29,01,59,0.00
2015,01,29,02,00,0.00
2015,01,29,02,01,0.00
2015,01,29,02,02,0.00
2015,01,29,02,03,0.00
2015,01,29,02,04,0.00
2015,01,29,02,05,0.00
2015,01,29,02,06,0.00
2015,01,29,02,07,0.00
2015,01,29,02,08,0.00
2015,01,29,02,09,0.00
2015,01,29,02,10,0.00
2015,01,29,02,11,0.00
2015,01,29,02,12,0.00
2015,01,29,02,13,0.00
2015,01,29,02,14,0.00
2015,01,29,02,15,0.00
2015,01,29,02,16,0.00
2015,01,29,02,17,0.00
2015,01,29,02,18,0.00
2015,01,29,02,19,0.00
2015,01,29,02,20,0.00
2015,01,29,02,21,0.00
2015,01,29,02,22,0.00
2015,01,29,02,23,0.00
2015,01,29,02,24,0.00
2015,01,29,02,25,0.00
2015,01,29,02,26,0.00
2015,01,29,02,27,0.00
2015,01,29,02,28,0.00
2015,01,29,02,29,0.00
2015,01,29,02,30,0.00
2015,01,29,02,31,0.00
2015,01,29,02,32,0.00
2015,01,29,02,33,0.00
2015,01,29,02,34,0.00
2015,01,29,02,35,0.00
2015,01,29,02,36,0.00
2015,01,29,02,37,0.00
2015,01,29,02,38,0.00
2015,01,29,02,39,0.00
2015,01,29,02,40,0.00
2015,01,29,02,41,0.00
2015,01,29,02,42,0.00
2015,01,29,02,43,0.00
2015,01,29,02,44,0.00
2015,01,29,02,45,0.00
2015,01,29,02,46,0.00
2015,01,29,02,47,0.00
2015,01,29,02,48,0.00
2015,01,29,02,49,0.00
2015,01,29,02,50,0.00
2015,01,29,02,51,0.00
2015,01,29,02,52,0.00
2015,01,29,02,53,0.00
2015,01,29,02,54,0.00
2015,01,29,02,55,0.00
2015,01,29,02,56,0.00
2015,01,29,02,57,0.00
2015,01,29,02,58,0.00
2015,01,29,02,59,0.00
2015,01,29,03,00,0.00
2015,01,29,03,01,0.00
2015,01,29,03,02,0.00
2015,01,29,03,03,0.00
2015,01,29,03,04,0.00
2015,01,29,03,05,0.00
2015,01,29,03,06,0.00
2015,01,29,03,07,0.00
2015,01,29,03,08,0.00
2015,01,29,03,09,0.00
2015,01,29,03,10,0.00
2015,01,29,03,11,0.00
2015,01,29,03,12,0.00
2015,01,29,03,13,0.00
2015,01,29,03,14,0.00
2015,01,29,03,15,0.00
2015,01,29,03,16,0.00
2015,01,29,03,17,0.00
2015,01,29,03,18,0.00
2015,01,29,03,19,0.00
2015,01,29,03,20,0.00
2015,01,29,03,21,0.00
2015,01,29,03,22,0.00
2015,01,29,03,23,0.00
2015,01,29,03,24,0.00
2015,01,29,03,25,0.00
2015,01,29,03,26,0.00
2015,01,29,03,27,0.00
2015,01,29,03,28,0.00
2015,01,29,03,29,0.00
2015,01,29,03,30,0.00
2015,01,29,03,31,0.00
2015,01,29,03,32,0.00
2015,01,29,03,33,0.00
2015,01,29,03,34,0.00
2015,01,29,03,35,0.00
2015,01,29,03,36,0.00
2015,01,29,03,37,0.00
2015,01,29,03,38,0.00
2015,01,29,03,39,0.00
2015,01,29,03,40,0.00
2015,01,29,03,41,0.00
2015,01,29,03,42,0.00
2015,01,29,03,43,0.00
2015,01,29,03,44,0.00
2015,01,29,03,45,0.00
2015,01,29,03,46,0.00
2015,01,29,03,47,0.00
2015,01,29,03,48,0.00
2015,01,29,03,49,0.00
2015,01,29,03,50,0.00
2015,01,29,03,51,0.00
2015,01,29,03,52,0.00
2015,01,29,03,53,0.00
2015,01,29,03,54,0.00
2015,01,29,03,55,0.00
2015,01,29,03,56,0.00
2015,01,29,03,57,0.00
2015,01,29,03,58,0.00
2015,01,29,03,59,0.00
2015,01,29,04,00,0.00
2015,01,29,04,01,0.00
2015,01,29,04,02,0.00
2015,01,29,04,03,0.00
2015,01,29,04,04,0.00
2015,01,29,04,05,0.00
2015,01,29,04,06,0.00
2015,01,29,04,07,0.00
2015,01,29,04,08,0.00
2015,01,29,04,09,0.00
2015,01,29,04,10,0.00
2015,01,29,04,11,0.00
2015,01,29,04,12,0.00
2015,01,29,04,13,0.00
2015,01,29,04,14,0.00
2015,01,29,04,15,0.00
2015,01,29,04,16,0.00
2015,01,29,04,17,0.00
2015,01,29,04,18,0.00
2015,01,29,04,19,0.00
2015,01,29,04,20,0.00
2015,01,29,04,21,0.00
2015,01,29,04,22,0.00
2015,01,29,04,23,0.00
2015,01,29,04,24,0.00
2015,01,29,04,25,0.00
2015,01,29,04,26,0.00
2015,01,29,04,27,0.00
2015,01,29,04,28,0.00
2015,01,29,04,29,0.00
2015,01,29,04,30,0.00
2015,01,29,04,31,0.00
2015,01,29,04,32,0.00
2015,01,29,04,33,0.00
2015,01,29,04,34,0.00
2015,01,29,04,35,0.00
2015,01,29,04,36,0.00
2015,01,29,04,37,0.00
2015,01,29,04,38,0.00
2015,01,29,04,39,0.00
2015,01,29,04,40,0.00
2015,01,29,04,41,0.00
2015,01,29,04,42,0.00
2015,01,29,04,43,0.00
2015,01,29,04,44,0.00
2015,01,29,04,45,0.00
2015,01,29,04,46,0.00
2015,01,29,04,47,0.00
2015,01,29,04,48,0.00
2015,01,29,04,49,0.00
2015,01,29,04,50,0.00
2015,01,29,04,51,0.00
2015,01,29,04,52,0.00
2015,01,29,04,53,0.00
2015,01,29,04,54,0.00
2015,01,29,04,55,0.00
2015,01,29,04,56,0.00
2015,01,29,04,57,0.00
2015,01,29,04,58,0.00
2015,01,29,04,59,0.00
2015,01,29,05,00,0.00
2015,01,29,05,01,0.00
2015,01,29,05,02,0.00
2015,01,29,05,03,0.00
2015,01,29,05,04,0.00
2015,01,29,05,05,0.00
2015,01,29,05,06,0.00
2015,01,29,05,07,0.00
2015,01,29,05,08,0.00
2015,01,29,05,09,0.00
2015,01,29,05,10,0.00
2015,01,29,05,11,0.00
2015,01,29,05,12,0.00
2015,01,29,05,13,0.00
2015,01,29,05,14,0.00
2015,01,29,05,15,0.00
2015,01,29,05,16,0.00
2015,01,29,05,17,0.00
2015,01,29,05,18,0.00
2015,01,29,05,19,0.00
2015,01,29,05,20,0.00
2015,01,29,05,21,0.00
2015,01,29,05,22,0.00
2015,01,29,05,23,0.00
2015,01,29,05,24,0.00
2015,01,29,05,25,0.00
2015,01,29,05,26,0.00
2015,01,29,05,27,0.00
2015,01,29,05,28,0.00
2015,01,29,05,29,0.00
2015,01,29,05,30,0.00
2015,01,29,05,31,0.00
2015,01,29,05,32,0.00
2015,01,29,05,33,0.00
2015,01,29,05,34,0.00
2015,01,29,05,35,0.00
2015,01,29,05,36,0.00
2015,01,29,05,37,0.00
2015,01,29,05,38,0.00
2015,01,29,05,39,0.00
2015,01,29,05,40,0.00
2015,01,29,05,41,0.00
2015,01,29,05,42,0.00
2015,01,29,05,43,0.00
2015,01,29,05,44,0.00
2015,01,29,05,45,0.00
2015,01,29,05,46,0.00
2015,01,29,05,47,0.00
2015,01,29,05,48,0.00
2015,01,29,05,49,0.00
2015,01,29,05,50,0.00
2015,01,29,05,51,0.00
2015,01,29,05,52,0.00
2015,01,29,05,53,0.00
2015,01,29,05,54,0.00
2015,01,29,05,55,0.00
2015,01,29,05,56,0.00
2015,01,29,05,57,0.00
2015,01,29,05,58,0.00
2015,01,29,05,59,0.00
2015,01,29,06,00,0.00
2015,01,29,06,01,0.00
2015,01,29,06,02,0.00
2015,01,29,06,03,0.00
2015,01,29,06,04,0.00
2015,01,29,06,05,0.00
2015,01,29,06,06,0.00
2015,01,29,06,07,0.00
2015,01,29,06,08,0.00
2015,01,29,06,09,0.00
2015,01,29,06,10,0.00
2015,01,29,06,11,0.00
2015,01,29,06,12,0.00
2015,01,29,06,13,0.00
2015,01,29,06,14,0.00
2015,01,29,06,15,0.00
2015,01,29,06,16,0.00
2015,01,29,06,17,0.00
2015,01,29,06,18,0.00
2015,01,29,06,19,0.00
2015,01,29,06,20,0.00
2015,01,29,06,21,0.00
2015,01,29,06,22,0.00
2015,01,29,06,23,0.00
2015,01,29,06,24,0.00
2015,01,29,06,25,0.00
2015,01,29,06,26,0.00
2015,01,29,06,27,0.00
2015,01,29,06,28,0.00
2015,01,29,06,29,0.00
2015,01,29,06,30,0.00
2015,01,29,06,31,0.00
2015,01,29,06,32,0.00
2015,01,29,06,33,0.00
2015,01,29,06,34,0.00
2015,01,29,06,35,0.00
2015,01,29,06,36,0.00
2015,01,29,06,37,0.00
2015,01,29,06,38,0.00
2015,01,29,06,39,0.00
2015,01,29,06,40,0.00
2015,01,29,06,41,0.00
2015,01,29,06,42,0.00
2015,01,29,06,43,0.00
2015,01,29,06,44,0.00
2015,01,29,06,45,0.00
2015,01,29,06,46,0.00
2015,01,29,06,47,0.00
2015,01,29,06,48,0.00
2015,01,29,06,49,0.00
2015,01,29,06,50,0.00
2015,01,29,06,51,0.00
2015,01,29,06,52,0.00
2015,01,29,06,53,0.00
2015,01,29,06,54,0.00
2015,01,29,06,55,0.00
2015,01,29,06,56,0.00
2015,01,29,06,57,0.00
2015,01,29,06,58,0.00
2015,01,29,06,59,0.00
2015,01,29,07,00,0.00
2015,01,29,07,01,0.00
2015,01,29,07,02,0.00
2015,01,29,07,03,0.00
2015,01,29,07,04,0.00
2015,01,29,07,05,0.00
2015,01,29,07,06,0.00
2015,01,29,07,07,0.00
2015,01,29,07,08,0.00
2015,01,29,07,09,0.00
2015,01,29,07,10,0.00
2015,01,29,07,11,0.00
2015,01,29,07,12,0.00
2015,01,29,07,13,0.00
2015,01,29,07,14,0.00
2015,01,29,07,15,0.00
2015,01,29,07,16,0.00
2015,01,29,07,17,0.00
2015,01,29,07,18,0.00
2015,01,29,07,19,0.00
2015,01,29,07,20,0.00
2015,01,29,07,21,0.00
2015,01,29,07,22,0.00
2015,01,29,07,23,0.00
2015,01,29,07,24,0.00
2015,01,29,07,25,0.00
2015,01,29,07,26,0.00
2015,01,29,07,27,0.00
2015,01,29,07,28,0.00
2015,01,29,07,29,0.00
2015,01,29,07,30,0.00
2015,01,29,07,31,0.00
2015,01,29,07,32,0.00
2015,01,29,07,33,0.00
2015,01,29,07,34,0.00
2015,01,29,07,35,0.00
2015,01,29,07,36,0.00
2015,01,29,07,37,0.00
2015,01,29,07,38,0.00
2015,01,29,07,39,0.00
2015,01,29,07,40,0.00
2015,01,29,07,41,0.00
2015,01,29,07,42,0.00
2015,01,29,07,43,0.00
2015,01,29,07,44,0.00
2015,01,29,07,45,0.00
2015,01,29,07,46,0.00
2015,01,29,07,47,0.00
2015,01,29,07,48,0.00
2015,01,29,07,49,0.00
2015,01,29,07,50,0.00
2015,01,29,07,51,0.00
2015,01,29,07,52,0.00
2015,01,29,07,53,0.00
2015,01,29,07,54,0.00
2015,01,29,07,55,2.60
2015,01,29,07,56,5.00
2015,01,29,07,57,5.00
2015,01,29,07,58,5.00
2015,01,29,07,59,5.00
2015,01,29,08,00,5.00
2015,01,29,08,01,5.00
2015,01,29,08,02,5.00
2015,01,29,08,03,5.50
2015,01,29,08,04,7.00
2015,01,29,08,05,7.00
2015,01,29,08,06,7.00
2015,01,29,08,07,7.00
2015,01,29,08,08,7.00
2015,01,29,08,09,7.00
2015,01,29,08,10,7.00
2015,01,29,08,11,7.00
2015,01,29,08,12,7.00
2015,01,29,08,13,7.40
2015,01,29,08,14,9.00
2015,01,29,08,15,9.70
2015,01,29,08,16,11.00
2015,01,29,08,17,11.00
2015,01,29,08,18,11.00
2015,01,29,08,19,11.00
2015,01,29,08,20,11.00
2015,01,29,08,21,11.90
2015,01,29,08,22,12.00
2015,01,29,08,23,12.00
2015,01,29,08,24,12.00
2015,01,29,08,25,12.00
2015,01,29,08,26,12.00
2015,01,29,08,27,12.90
2015,01,29,08,28,14.00
2015,01,29,08,29,14.00
2015,01,29,08,30,14.00
2015,01,29,08,31,15.60
2015,01,29,08,32,16.00
2015,01,29,08,33,16.10
2015,01,29,08,34,19.00
2015,01,29,08,35,19.40
2015,01,29,08,36,21.00
2015,01,29,08,37,21.70
2015,01,29,08,38,23.00
2015,01,29,08,39,23.00
2015,01,29,08,40,23.00
2015,01,29,08,41,23.00
2015,01,29,08,42,23.00
2015,01,29,08,43,23.00
2015,01,29,08,44,22.90
2015,01,29,08,45,21.00
2015,01,29,08,46,21.00
2015,01,29,08,47,21.00
2015,01,29,08,48,21.00
2015,01,29,08,49,21.00
2015,01,29,08,50,21.00
2015,01,29,08,51,21.00
2015,01,29,08,52,21.00
2015,01,29,08,53,21.00
2015,01,29,08,54,21.00
2015,01,29,08,55,21.00
2015,01,29,08,56,21.00
2015,01,29,08,57,21.00
2015,01,29,08,58,21.00
2015,01,29,08,59,21.00
2015,01,29,09,00,21.00
2015,01,29,09,01,21.00
2015,01,29,09,37,74.00
2015,01,29,09,38,74.00
2015,01,29,09,39,74.20
2015,01,29,09,40,79.00
2015,01,29,09,41,79.00
2015,01,29,09,42,79.00
2015,01,29,09,43,79.00
2015,01,29,09,44,79.00
2015,01,29,09,45,83.70
2015,01,29,09,46,88.00
2015,01,29,09,47,89.30
2015,01,29,09,48,90.00
2015,01,29,09,49,90.00
2015,01,29,09,50,90.00
2015,01,29,09,51,90.10
2015,01,29,09,52,91.00
2015,01,29,09,53,91.00
2015,01,29,09,54,90.60
2015,01,29,09,55,90.00
2015,01,29,09,56,89.00
2015,01,29,09,57,86.80
2015,01,29,09,58,86.00
2015,01,29,09,59,86.00
2015,01,29,10,00,86.00
2015,01,29,10,01,89.90
2015,01,29,10,02,91.00
2015,01,29,10,03,91.00
2015,01,29,10,04,90.70
2015,01,29,10,05,90.00
2015,01,29,10,06,90.00
2015,01,29,10,07,90.50
2015,01,29,10,08,91.00
2015,01,29,10,09,91.00
2015,01,29,10,10,98.00
2015,01,29,10,11,100.00
2015,01,29,10,12,104.60
2015,01,29,10,13,108.60
2015,01,29,10,14,104.80
2015,01,29,10,15,104.00
2015,01,29,10,16,104.00
2015,01,29,10,17,104.00
2015,01,29,10,18,104.00
2015,01,29,10,19,107.10
2015,01,29,10,20,110.40
2015,01,29,10,21,111.00
2015,01,29,10,22,111.00
2015,01,29,10,23,114.00
2015,01,29,10,24,116.60
2015,01,29,10,25,121.00
2015,01,29,10,26,121.00
2015,01,29,10,27,121.00
2015,01,29,10,28,121.00
2015,01,29,10,29,121.00
2015,01,29,10,30,121.00
2015,01,29,10,31,121.00
2015,01,29,10,32,121.00
2015,01,29,10,33,121.00
2015,01,29,10,34,129.30
2015,01,29,10,35,130.00
2015,01,29,10,36,130.40
2015,01,29,10,37,132.00
2015,01,29,10,38,132.00
2015,01,29,10,39,132.80
2015,01,29,10,40,132.90
2015,01,29,10,41,132.00
2015,01,29,10,42,132.00
2015,01,29,10,43,133.60
2015,01,29,10,44,134.00
2015,01,29,10,45,134.00
2015,01,29,10,46,134.00
2015,01,29,10,47,136.80
2015,01,29,10,48,149.00
2015,01,29,10,49,149.70
2015,01,29,10,50,151.00
2015,01,29,10,51,152.00
2015,01,29,10,52,154.30
2015,01,29,10,53,155.00
2015,01,29,10,54,155.00
2015,01,29,10,55,155.00
2015,01,29,10,56,155.10
2015,01,29,10,57,158.00
2015,01,29,10,58,158.00
2015,01,29,10,59,158.00
2015,01,29,11,00,158.00
2015,01,29,11,01,158.00
2015,01,29,11,02,158.00
2015,01,29,11,03,158.00
2015,01,29,11,04,158.00
2015,01,29,11,05,158.00
2015,01,29,11,06,158.00
2015,01,29,11,07,158.00
2015,01,29,11,08,158.00
2015,01,29,11,09,158.00
